This demonstration page uses our WeatherBlox Daily Observations layout. Learn more.

Left ArrowRight Arrow

47.50024, -111.30081

Hourly Observations for March 26, 2015

Temp ( °F °C ) Dew Point ( °F °C ) Humidity (%) Winds ( mph kmh ) Pressure ( in mb ) Visibility ( mi km ) Precip ( " mm )
12:53 am 00:53 Cloudy 44 6.7 29 -1.7 55 55 SW 14 22 30.18 1022 10 16 0.00 0.00
1:53 am 01:53 Cloudy 44 6.7 30 -1.1 58 58 SW 10 17 30.19 1022 10 16 0.00 0.00
2:53 am 02:53 Cloudy 44 6.7 32 0 63 63 SW 13 20 30.19 1022 10 16 0.00 0.03
3:53 am 03:53 Cloudy 44 6.7 33 0.6 65 65 SW 15 24 30.17 1022 10 16 0.00 0.00
4:53 am 04:53 Mostly Cloudy 44 6.7 32 0 63 63 SW 17 28 30.16 1021 10 16 0.00 0.00
5:53 am 05:53 Clear 43 6.1 32 0 65 65 SW 13 20 30.16 1022 10 16 0.00 0.00
6:53 am 06:53 Clear 45 7.2 32 0 61 61 SW 16 26 30.16 1021 10 16 0.00 0.00
7:53 am 07:53 Sunny 45 7.2 33 0.6 63 63 SW 16 26 30.17 1022 10 16 0.00 0.00
8:53 am 08:53 Sunny 47 8.3 33 0.6 59 59 SW 18 30 30.17 1022 10 16 0.00 0.00
9:53 am 09:53 Sunny 52 11.1 34 1.1 50 50 SW 20 31 30.16 1022 10 16 0.00 0.00
10:53 am 10:53 Sunny 57 13.9 33 0.6 41 41 WSW 25 41 30.13 1020 10 16 0.00 0.00
11:53 am 11:53 Cloudy 58 14.4 34 1.1 41 41 WSW 25 41 30.13 1020 10 16 0.00 0.00
12:53 pm 12:53 Mostly Sunny 61 16.1 34 1.1 36 36 WSW 21 33 30.09 1019 10 16 0.00 0.00
1:53 pm 13:53 Sunny 64 17.8 36 2.2 35 35 WSW 24 39 30.06 1018 10 16 0.00 0.00
2:53 pm 14:53 Partly Cloudy 65 18.3 35 1.7 33 33 W 29 46 30.05 1018 10 16 0.00 0.00
3:53 pm 15:53 Sunny 64 17.8 34 1.1 33 33 W 26 43 30.05 1018 10 16 0.00 0.00
4:53 pm 16:53 Mostly Cloudy 66 18.9 35 1.7 32 32 W 24 39 30.06 1018 10 16 0.00 0.00
5:53 pm 17:53 Sunny 64 17.8 33 0.6 32 32 W 23 37 30.08 1019 10 16 0.00 0.00
6:53 pm 18:53 Sunny 59 15 35 1.7 41 41 W 23 37 30.10 1019 10 16 0.00 0.00
7:53 pm 19:53 Clear 54 12.2 36 2.2 51 51 WSW 14 22 30.12 1020 10 16 0.00 0.00
8:53 pm 20:53 Clear 50 10 36 2.2 59 59 SSW 10 17 30.14 1021 10 16 0.00 0.00
9:53 pm 21:53 Clear 48 8.9 36 2.2 63 63 SSW 10 17 30.14 1021 10 16 0.00 0.00
10:53 pm 22:53 Mostly Clear 51 10.6 36 2.2 56 56 SW 15 24 30.11 1020 10 16 0.00 0.00
11:53 pm 23:53 Clear 47 8.3 36 2.2 66 66 SW 10 17 30.12 1020 10 16 0.00 0.00

Powered by AerisWeather